FW6081 Weather Reports


Display with metric or nautical units.
time (UTC)temp
F
wind
direction
speed
MPH
gust
MPH
rain 1hr
in
rain 24hr
in
rain mn
in
humidity
%
barometer
mb
20210921132051 73 360 1.0 6.0 0.00 0.00 0.00 60 1016.8
20210921131622 74 42 1.0 6.0 0.00 0.00 0.00 61 1016.7
20210921131041 74 51 2.0 5.0 0.00 0.00 0.00 61 1016.7
20210921130546 74 290 0.0 6.0 0.00 0.00 0.00 61 1016.5
20210921130103 74 323 1.0 8.0 0.00 0.00 0.00 61 1016.3
20210921125615 74 53 1.0 8.0 0.00 0.00 0.00 61 1016.3
20210921125036 74 22 2.0 6.0 0.00 0.00 0.00 62 1016.1
20210921124558 74 5 1.0 6.0 0.00 0.00 0.00 63 1015.9
20210921124042 74 292 1.0 6.0 0.00 0.00 0.00 64 1015.6
20210921123539 75 40 1.0 6.0 0.00 0.00 0.00 64 1015.4
20210921123033 75 22 1.0 8.0 0.00 0.00 0.00 66 1015.3
20210921122530 75 44 1.0 10.0 0.00 0.00 0.00 67 1015.2
20210921122028 75 336 1.0 8.0 0.00 0.00 0.00 70 1015.1
20210921121530 75 324 2.0 8.0 0.00 0.00 0.00 74 1015.0
20210921121025 76 13 0.0 4.0 0.00 0.00 0.00 76 1014.9
20210921120525 76 146 0.0 0.0 0.00 0.00 0.00 76 1014.6
20210921120053 76 146 0.0 0.0 0.00 0.00 0.00 76 1014.4
20210921115522 76 146 0.0 0.0 0.00 0.00 0.00 75 1014.3
20210921115023 76 146 0.0 0.0 0.00 0.00 0.00 75 1014.1
20210921114533 76 146 0.0 0.0 0.00 0.00 0.00 75 1013.9
20210921114019 76 146 0.0 0.0 0.00 0.00 0.00 74 1013.7
20210921113530 76 146 0.0 0.0 0.00 0.00 0.00 74 1013.6
20210921113038 76 146 0.0 0.0 0.00 0.00 0.00 74 1013.7
20210921112525 77 146 0.0 0.0 0.00 0.00 0.00 73 1013.6
20210921112016 77 146 0.0 0.0 0.00 0.00 0.00 73 1013.5
20210921111519 77 146 0.0 0.0 0.00 0.00 0.00 73 1013.4
20210921111022 77 146 0.0 0.0 0.00 0.00 0.00 73 1013.3
20210921110518 77 146 0.0 0.0 0.00 0.00 0.00 72 1013.4
20210921110015 78 146 0.0 0.0 0.00 0.00 0.00 72 1013.3
20210921105511 78 146 0.0 0.0 0.00 0.00 0.00 71 1013.0
20210921105024 78 146 0.0 0.0 0.00 0.00 0.00 71 1012.9
20210921104007 78 146 0.0 0.0 0.00 0.00 0.00 70 1012.8
20210921103507 79 146 0.0 0.0 0.00 0.00 0.00 70 1012.7
20210921103046 79 146 0.0 0.0 0.00 0.00 0.00 69 1012.7
20210921102508 79 146 0.0 0.0 0.00 0.00 0.00 69 1012.6
20210921102011 79 146 0.0 0.0 0.00 0.00 0.00 69 1012.7
20210921101504 79 146 0.0 0.0 0.00 0.00 0.00 68 1012.7
20210921101006 80 146 0.0 0.0 0.00 0.00 0.00 68 1012.5
20210921100502 80 146 0.0 0.0 0.00 0.00 0.00 68 1012.4
20210921100002 80 146 0.0 0.0 0.00 0.00 0.00 67 1012.4
20210921095501 80 146 0.0 0.0 0.00 0.00 0.00 67 1012.4
20210921095109 80 146 0.0 0.0 0.00 0.00 0.00 67 1012.2
20210921094651 80 146 0.0 0.0 0.00 0.00 0.00 67 1012.2
20210921094058 81 146 0.0 0.0 0.00 0.00 0.00 66 1012.1
20210921093608 81 146 0.0 0.0 0.00 0.00 0.00 65 1012.0
20210921093147 81 146 0.0 0.0 0.00 0.00 0.00 64 1012.2
20210921092556 81 146 0.0 0.0 0.00 0.00 0.00 64 1012.1
20210921092057 81 146 0.0 0.0 0.00 0.00 0.00 64 1012.0
20210921091705 81 146 0.0 1.0 0.00 0.00 0.00 64 1012.0
20210921091053 81 146 0.0 2.0 0.00 0.00 0.00 63 1011.9
20210921090608 82 146 0.0 2.0 0.00 0.00 0.00 63 1011.7
20210921090136 82 134 0.0 2.0 0.00 0.00 0.00 63 1011.5
20210921085552 82 134 0.0 2.0 0.00 0.00 0.00 63 1011.5
20210921085052 82 128 0.0 5.0 0.00 0.00 0.00 63 1011.5
20210921084717 82 173 1.0 5.0 0.00 0.00 0.00 63 1011.4
20210921084051 82 134 0.0 2.0 0.00 0.00 0.00 62 1011.5
20210921083551 82 133 0.0 2.0 0.00 0.00 0.00 63 1011.5
20210921083156 82 147 0.0 5.0 0.00 0.00 0.00 62 1011.5
20210921082550 82 135 0.0 5.0 0.00 0.00 0.00 62 1011.4
20210921082050 82 204 0.0 4.0 0.00 0.00 0.00 62 1011.4
20210921081611 82 116 0.0 3.0 0.00 0.00 0.00 62 1011.5
20210921081047 83 153 0.0 4.0 0.00 0.00 0.00 61 1011.4
20210921080546 83 94 0.0 4.0 0.00 0.00 0.00 61 1011.3
20210921080135 83 140 0.0 4.0 0.00 0.00 0.00 61 1011.2
20210921075554 83 174 0.0 4.0 0.00 0.00 0.00 61 1011.2
20210921075107 83 196 1.0 5.0 0.00 0.00 0.00 61 1011.1
20210921074731 83 132 0.0 5.0 0.00 0.00 0.00 60 1011.1
20210921074050 83 123 1.0 5.0 0.00 0.00 0.00 60 1011.1
20210921073604 83 132 2.0 7.0 0.00 0.00 0.00 60 1011.0
20210921073119 83 165 2.0 7.0 0.00 0.00 0.00 60 1011.0
20210921072545 83 144 1.0 4.0 0.00 0.00 0.00 60 1011.0
20210921072041 83 165 1.0 4.0 0.00 0.00 0.00 59 1010.8
20210921071711 83 142 1.0 6.0 0.00 0.00 0.00 59 1010.8
20210921071048 83 164 1.0 6.0 0.00 0.00 0.00 59 1010.8
20210921070546 83 217 1.0 6.0 0.00 0.00 0.00 59 1010.8
20210921070114 84 163 2.0 8.0 0.00 0.00 0.00 59 1010.8
20210921065540 84 158 2.0 8.0 0.00 0.00 0.00 59 1010.7
20210921065055 84 139 0.0 7.0 0.00 0.00 0.00 58 1010.7
20210921064613 84 153 1.0 7.0 0.00 0.00 0.00 58 1010.7
20210921064045 84 122 2.0 8.0 0.00 0.00 0.00 58 1010.8
20210921063534 84 142 2.0 8.0 0.00 0.00 0.00 57 1010.8
20210921063040 84 176 2.0 7.0 0.00 0.00 0.00 57 1010.7
20210921062534 84 157 3.0 9.0 0.00 0.00 0.00 57 1010.6
20210921062033 84 197 2.0 9.0 0.00 0.00 0.00 56 1010.5
20210921061544 84 138 1.0 9.0 0.00 0.00 0.00 56 1010.7
20210921061033 84 127 3.0 10.0 0.00 0.00 0.00 56 1010.7
20210921060536 84 155 3.0 11.0 0.00 0.00 0.00 56 1010.7
20210921060314 84 87 1.0 8.0 0.00 0.00 0.00 56 1010.7
20210921055531 84 140 2.0 8.0 0.00 0.00 0.00 56 1010.7
20210921054613 85 109 1.0 7.0 0.00 0.00 0.00 56 1010.7
20210921054036 85 143 1.0 8.0 0.00 0.00 0.00 56 1010.7
20210921053549 85 127 0.0 7.0 0.00 0.00 0.00 56 1010.6
20210921053036 85 168 1.0 7.0 0.00 0.00 0.00 56 1010.6
20210921052527 85 151 1.0 7.0 0.00 0.00 0.00 56 1010.4
20210921052035 85 148 1.0 7.0 0.00 0.00 0.00 55 1010.6
20210921051543 85 134 1.0 9.0 0.00 0.00 0.00 56 1010.4
20210921051027 85 149 2.0 9.0 0.00 0.00 0.00 56 1010.4
20210921050525 85 149 2.0 8.0 0.00 0.00 0.00 56 1010.4
20210921050028 85 142 2.0 8.0 0.00 0.00 0.00 56 1010.2
20210921045524 85 161 1.0 6.0 0.00 0.00 0.00 56 1010.3
20210921045023 85 155 1.0 6.0 0.00 0.00 0.00 56 1010.5
20210921044529 85 168 1.0 6.0 0.00 0.00 0.00 56 1010.4
20210921044029 85 88 0.0 5.0 0.00 0.00 0.00 56 1010.3
20210921043523 85 186 2.0 6.0 0.00 0.00 0.00 56 1010.3
20210921043038 85 142 2.0 5.0 0.00 0.00 0.00 56 1010.2
20210921042523 85 160 1.0 6.0 0.00 0.00 0.00 55 1010.1
20210921042037 85 145 1.0 8.0 0.00 0.00 0.00 55 1010.0
20210921041537 85 139 2.0 7.0 0.00 0.00 0.00 55 1010.1
20210921041022 85 157 3.0 8.0 0.00 0.00 0.00 55 1010.0
20210921040522 85 165 1.0 7.0 0.00 0.00 0.00 55 1010.0
20210921040028 85 179 1.0 5.0 0.00 0.00 0.00 54 1010.0
20210921035522 85 155 1.0 5.0 0.00 0.00 0.00 54 1010.2
20210921035022 85 169 1.0 5.0 0.00 0.00 0.00 54 1010.1
20210921034551 86 148 1.0 5.0 0.00 0.00 0.00 54 1010.0
20210921034022 86 152 1.0 7.0 0.00 0.00 0.00 54 1010.0
20210921033539 86 157 1.0 6.0 0.00 0.00 0.00 53 1010.0
20210921033035 86 154 1.0 7.0 0.00 0.00 0.00 52 1010.0
20210921032520 86 207 1.0 7.0 0.00 0.00 0.00 52 1010.0
20210921032029 86 166 2.0 5.0 0.00 0.00 0.00 52 1010.0
20210921031603 86 182 1.0 6.0 0.00 0.00 0.00 51 1010.0
20210921031020 86 186 1.0 6.0 0.00 0.00 0.00 51 1010.0
20210921030528 86 190 0.0 5.0 0.00 0.00 0.00 52 1009.9
20210921030114 86 184 0.0 3.0 0.00 0.00 0.00 52 1009.9
20210921025520 87 159 0.0 4.0 0.00 0.00 0.00 52 1009.8
20210921025020 87 198 0.0 4.0 0.00 0.00 0.00 51 1009.7
20210921024522 87 198 1.0 5.0 0.00 0.00 0.00 51 1009.7
20210921024019 87 165 0.0 5.0 0.00 0.00 0.00 50 1009.6
20210921023519 87 123 0.0 3.0 0.00 0.00 0.00 50 1009.6
20210921023052 87 136 0.0 5.0 0.00 0.00 0.00 50 1009.6
20210921022533 87 172 0.0 5.0 0.00 0.00 0.00 50 1009.6
20210921022019 87 152 1.0 4.0 0.00 0.00 0.00 50 1009.4
20210921021533 88 140 0.0 5.0 0.00 0.00 0.00 49 1009.4
20210921021035 88 153 1.0 5.0 0.00 0.00 0.00 48 1009.4
20210921020519 88 94 1.0 4.0 0.00 0.00 0.00 48 1009.3
20210921020027 88 182 0.0 3.0 0.00 0.00 0.00 47 1009.1
20210921015518 89 163 0.0 3.0 0.00 0.00 0.00 46 1009.1
20210921015018 89 202 0.0 2.0 0.00 0.00 0.00 46 1009.0
20210921014528 89 163 0.0 2.0 0.00 0.00 0.00 45 1008.9
20210921014025 90 170 0.0 5.0 0.00 0.00 0.00 44 1008.9
20210921013517 90 191 1.0 5.0 0.00 0.00 0.00 44 1008.8
20210921013033 90 163 0.0 6.0 0.00 0.00 0.00 43 1008.7
20210921012516 90 121 1.0 6.0 0.00 0.00 0.00 43 1008.6
20210921012027 90 177 0.0 3.0 0.00 0.00 0.00 43 1008.5
20210921011519 91 137 0.0 3.0 0.00 0.00 0.00 43 1008.5
20210921011021 91 138 0.0 4.0 0.00 0.00 0.00 43 1008.4
20210921010516 91 132 0.0 4.0 0.00 0.00 0.00 43 1008.4
20210921010058 91 153 1.0 3.0 0.00 0.00 0.00 43 1008.3
20210921005535 91 134 0.0 6.0 0.00 0.00 0.00 43 1008.3
20210921005015 91 137 0.0 5.0 0.00 0.00 0.00 43 1008.2
20210921004519 91 96 1.0 5.0 0.00 0.00 0.00 43 1008.1
20210921004014 91 136 0.0 5.0 0.00 0.00 0.00 43 1008.1
20210921003520 92 190 1.0 6.0 0.00 0.00 0.00 43 1008.0
20210921003029 92 117 0.0 6.0 0.00 0.00 0.00 42 1008.0
20210921002534 92 172 1.0 6.0 0.00 0.00 0.00 41 1007.9
20210921002017 92 142 0.0 5.0 0.00 0.00 0.00 41 1007.8
20210921001532 93 209 0.0 4.0 0.00 0.00 0.00 41 1007.9
20210921001016 93 196 1.0 6.0 0.00 0.00 0.00 40 1007.8
20210921000514 93 159 1.0 6.0 0.00 0.00 0.00 40 1007.8
20210921000027 93 187 1.0 5.0 0.00 0.00 0.00 40 1007.6
20210920235515 93 144 1.0 4.0 0.00 0.00 0.00 39 1007.6
20210920235014 94 152 1.0 6.0 0.00 0.00 0.00 39 1007.5
20210920234519 94 136 1.0 9.0 0.00 0.00 0.00 39 1007.4
20210920234016 94 122 3.0 9.0 0.00 0.00 0.00 38 1007.4
20210920233524 95 141 3.0 11.0 0.00 0.00 0.00 37 1007.6
20210920233011 95 128 1.0 11.0 0.00 0.00 0.00 37 1007.6
20210920232528 95 207 1.0 7.0 0.00 0.00 0.00 37 1007.5
20210920232011 95 180 2.0 7.0 0.00 0.00 0.00 37 1007.6
20210920231511 95 131 1.0 7.0 0.00 0.00 0.00 38 1007.5
20210920231010 96 114 1.0 9.0 0.00 0.00 0.00 38 1007.6
20210920230013 96 156 1.0 6.0 0.00 0.00 0.00 38 1007.5
20210920225519 96 171 2.0 7.0 0.00 0.00 0.00 37 1007.5
20210920225009 96 119 2.0 7.0 0.00 0.00 0.00 37 1007.7
20210920224515 96 196 1.0 8.0 0.00 0.00 0.00 37 1007.7
20210920224014 96 201 3.0 8.0 0.00 0.00 0.00 37 1007.7
20210920223508 96 180 2.0 7.0 0.00 0.00 0.00 37 1007.7
20210920223018 96 192 0.0 6.0 0.00 0.00 0.00 39 1007.6
20210920222511 96 163 1.0 6.0 0.00 0.00 0.00 39 1007.5
20210920222007 96 118 1.0 6.0 0.00 0.00 0.00 38 1007.6
20210920221509 96 189 2.0 6.0 0.00 0.00 0.00 37 1007.6
20210920221010 96 202 1.0 4.0 0.00 0.00 0.00 36 1007.4
20210920220508 96 173 1.0 6.0 0.00 0.00 0.00 36 1007.5
20210920220025 96 154 1.0 9.0 0.00 0.00 0.00 35 1007.4
20210920215510 96 178 1.0 9.0 0.00 0.00 0.00 35 1007.3
20210920215011 96 123 3.0 7.0 0.00 0.00 0.00 35 1007.6
20210920214517 96 179 1.0 4.0 0.00 0.00 0.00 36 1007.6
20210920214005 96 156 0.0 9.0 0.00 0.00 0.00 35 1007.8
20210920213504 96 167 2.0 9.0 0.00 0.00 0.00 33 1007.8
20210920213028 96 149 1.0 4.0 0.00 0.00 0.00 36 1007.8
20210920212515 96 122 0.0 4.0 0.00 0.00 0.00 37 1007.7
20210920211511 96 137 1.0 8.0 0.00 0.00 0.00 35 1007.8
20210920211006 96 132 2.0 8.0 0.00 0.00 0.00 35 1007.8
20210920210502 97 96 1.0 8.0 0.00 0.00 0.00 36 1007.9
20210920210006 97 180 1.0 8.0 0.00 0.00 0.00 38 1008.0
20210920205513 97 128 3.0 8.0 0.00 0.00 0.00 37 1007.9
20210920205001 98 153 1.0 6.0 0.00 0.00 0.00 38 1008.0
20210920204100 97 153 1.0 5.0 0.00 0.00 0.00 37 1008.1
20210920203559 98 337 1.0 5.0 0.00 0.00 0.00 36 1008.2
20210920203117 98 181 1.0 4.0 0.00 0.00 0.00 35 1008.2
20210920202558 98 145 1.0 7.0 0.00 0.00 0.00 36 1008.2
20210920202114 98 137 2.0 10.0 0.00 0.00 0.00 38 1008.3
20210920201650 98 141 3.0 10.0 0.00 0.00 0.00 37 1008.3
20210920201056 98 165 2.0 6.0 0.00 0.00 0.00 38 1008.3
20210920200604 98 38 1.0 9.0 0.00 0.00 0.00 40 1008.4
20210920200132 98 138 2.0 9.0 0.00 0.00 0.00 39 1008.5
20210920195554 98 180 3.0 5.0 0.00 0.00 0.00 39 1008.5
20210920195053 98 178 0.0 5.0 0.00 0.00 0.00 42 1008.6
20210920194659 97 198 1.0 6.0 0.00 0.00 0.00 40 1008.6
20210920194051 97 141 2.0 9.0 0.00 0.00 0.00 40 1008.6
20210920193551 97 284 1.0 9.0 0.00 0.00 0.00 41 1008.5
20210920193118 97 148 1.0 7.0 0.00 0.00 0.00 43 1008.6
20210920192548 96 183 2.0 7.0 0.00 0.00 0.00 43 1008.8
20210920192054 96 131 1.0 7.0 0.00 0.00 0.00 41 1008.8
20210920191625 96 130 1.0 7.0 0.00 0.00 0.00 43 1009.0
20210920191053 96 121 0.0 7.0 0.00 0.00 0.00 43 1009.0
20210920190545 96 152 2.0 7.0 0.00 0.00 0.00 43 1009.2
20210920190147 96 156 2.0 7.0 0.00 0.00 0.00 45 1009.2
20210920185545 96 165 1.0 6.0 0.00 0.00 0.00 45 1009.3
20210920185041 95 168 1.0 6.0 0.00 0.00 0.00 43 1009.3
20210920184625 95 134 2.0 7.0 0.00 0.00 0.00 43 1009.5
20210920184049 95 179 2.0 7.0 0.00 0.00 0.00 45 1009.6
20210920183537 95 255 2.0 5.0 0.00 0.00 0.00 44 1009.7
20210920183156 94 155 1.0 6.0 0.00 0.00 0.00 45 1009.6
20210920182536 94 344 0.0 9.0 0.00 0.00 0.00 45 1009.8
20210920182034 94 175 3.0 9.0 0.00 0.00 0.00 45 1009.9
20210920181546 94 92 1.0 7.0 0.00 0.00 0.00 46 1010.0
20210920181035 94 155 2.0 8.0 0.00 0.00 0.00 47 1010.1
20210920180530 94 144 2.0 10.0 0.00 0.00 0.00 47 1010.2
20210920180106 93 145 1.0 10.0 0.00 0.00 0.00 46 1010.2
20210920175532 93 175 1.0 7.0 0.00 0.00 0.00 48 1010.3
20210920175031 93 169 0.0 7.0 0.00 0.00 0.00 47 1010.3
20210920174542 93 197 1.0 6.0 0.00 0.00 0.00 48 1010.2
20210920174025 93 141 2.0 9.0 0.00 0.00 0.00 47 1010.4
20210920173532 92 151 1.0 8.0 0.00 0.00 0.00 50 1010.4
20210920173024 92 199 1.0 5.0 0.00 0.00 0.00 49 1010.4
20210920172521 92 144 1.0 8.0 0.00 0.00 0.00 50 1010.5
20210920172023 92 138 1.0 6.0 0.00 0.00 0.00 50 1010.5
20210920171533 91 165 1.0 8.0 0.00 0.00 0.00 50 1010.5
20210920171035 91 145 1.0 7.0 0.00 0.00 0.00 51 1010.5
20210920170516 91 129 3.0 9.0 0.00 0.00 0.00 51 1010.6
20210920170040 91 158 2.0 9.0 0.00 0.00 0.00 51 1010.6
20210920165512 91 170 1.0 8.0 0.00 0.00 0.00 52 1010.7
20210920165012 90 123 3.0 8.0 0.00 0.00 0.00 52 1010.7
20210920164512 90 151 1.0 6.0 0.00 0.00 0.00 53 1010.8
20210920164009 90 172 1.0 5.0 0.00 0.00 0.00 55 1010.8
20210920163507 89 313 0.0 6.0 0.00 0.00 0.00 55 1010.8
20210920163010 89 157 1.0 7.0 0.00 0.00 0.00 55 1010.8
20210920162508 89 193 1.0 9.0 0.00 0.00 0.00 55 1010.8
20210920162005 89 90 2.0 8.0 0.00 0.00 0.00 55 1010.7
20210920161515 88 311 2.0 8.0 0.00 0.00 0.00 56 1010.8
20210920161003 88 92 2.0 11.0 0.00 0.00 0.00 57 1010.8
20210920160600 88 113 1.0 11.0 0.00 0.00 0.00 57 1010.9
20210920160425 87 132 1.0 9.0 0.00 0.00 0.00 57 1011.0
20210920155605 87 152 3.0 7.0 0.00 0.00 0.00 57 1010.9
20210920155056 87 133 3.0 6.0 0.00 0.00 0.00 58 1011.0
20210920154626 86 180 1.0 6.0 0.00 0.00 0.00 59 1010.9
20210920154107 86 106 2.0 7.0 0.00 0.00 0.00 59 1011.1
20210920153551 85 163 1.0 8.0 0.00 0.00 0.00 61 1011.0
20210920153125 84 190 2.0 9.0 0.00 0.00 0.00 62 1011.1
20210920152556 84 116 3.0 9.0 0.00 0.00 0.00 63 1011.1
20210920152053 83 144 2.0 8.0 0.00 0.00 0.00 64 1011.0
20210920151627 82 130 3.0 8.0 0.00 0.00 0.00 65 1011.1
20210920151048 82 157 2.0 7.0 0.00 0.00 0.00 66 1011.1
20210920150542 82 104 2.0 5.0 0.00 0.00 0.00 67 1011.2
20210920150058 81 135 0.0 5.0 0.00 0.00 0.00 67 1011.1
20210920145555 81 191 2.0 5.0 0.00 0.00 0.00 67 1011.1
20210920145042 81 143 1.0 7.0 0.00 0.00 0.00 68 1011.0
20210920144615 80 160 3.0 8.0 0.00 0.00 0.00 68 1010.9
20210920144051 80 143 3.0 8.0 0.00 0.00 0.00 69 1010.9
20210920143545 80 138 1.0 4.0 0.00 0.00 0.00 69 1010.9
20210920143041 79 160 0.0 4.0 0.00 0.00 0.00 69 1010.8
20210920142553 79 212 0.0 5.0 0.00 0.00 0.00 70 1010.9
20210920142031 79 159 2.0 5.0 0.00 0.00 0.00 70 1010.7
20210920141610 78 106 2.0 6.0 0.00 0.00 0.00 70 1010.6
20210920141030 78 141 1.0 6.0 0.00 0.00 0.00 71 1010.6
20210920140528 77 148 1.0 4.0 0.00 0.00 0.00 72 1010.5
20210920140029 77 182 0.0 7.0 0.00 0.00 0.00 73 1010.5
20210920135526 77 162 2.0 7.0 0.00 0.00 0.00 73 1010.5
20210920135026 76 160 1.0 6.0 0.00 0.00 0.00 73 1010.4
20210920134537 76 143 2.0 6.0 0.00 0.00 0.00 74 1010.3
20210920134024 76 198 2.0 7.0 0.00 0.00 0.00 74 1010.3
20210920133538 75 168 2.0 7.0 0.00 0.00 0.00 75 1010.3
20210920133037 75 172 1.0 6.0 0.00 0.00 0.00 76 1010.2
20210920132533 75 134 1.0 6.0 0.00 0.00 0.00 76 1010.1